Regional Weather Roundup
Issued by NWS

Home | Current Version | Previous Version | Graphics & Text | Print | Product List | Glossary On
Versions: 1 2 3 4 5 6 7 8 9 10 11 12 13 14 15 16 17 18 19 20 21 22 23 24 25 26 27 28 29 30 31 32 33 34 35 36 37 38 39 40 41 42 43 44 45 46 47 48 49 50
000
ASUS43 KFSD 241602
RWRSD

WEATHER ROUNDUP FOR SOUTH DAKOTA
NATIONAL WEATHER SERVICE SIOUX FALLS SD
1100 AM CDT MON JUL 24 2017

NOTE: "FAIR" INDICATES FEW OR NO CLOUDS BELOW 12,000 FEET WITH NO
SIGNIFICANT WEATHER AND/OR OBSTRUCTIONS TO VISIBILITY.


SDZ001>005-009-010-012>017-241700-
NORTHWEST AND NORTH CENTRAL SOUTH DAKOTA

CITY           SKY/WX    TMP DP  RH WIND       PRES   REMARKS
BUFFALO          N/A     79  60  52 S10       29.81F
FAITH            N/A     78  60  53 SE14      29.86S
MOBRIDGE       CLOUDY    71  63  75 SE8       29.88R
$$

SDZ012>016-024>037-041>051-057-063-072>074-241700-
SOUTHWEST AND SOUTH CENTRAL SOUTH DAKOTA

CITY           SKY/WX    TMP DP  RH WIND       PRES   REMARKS
RAPID CTY ARPT SUNNY     83  55  38 VRB3      29.87F
PIERRE         CLOUDY    83  59  44 SE23      29.82F
CUSTER         SUNNY     81  48  31 W9        30.03F
ELLSWORTH AFB  SUNNY     82  55  38 E6        29.87F
PHILIP         CLOUDY    83  63  50 S9        29.82F
PINE RIDGE     SUNNY     88  63  43 S20G25    29.89F
SPEARFISH      FAIR      81  55  41 NW5       29.92F
WINNER         FAIR      85  61  44 S25G33    29.89F
$$

SDZ004>011-016>023-039-040-241700-
NORTHEAST SOUTH DAKOTA

CITY           SKY/WX    TMP DP  RH WIND       PRES   REMARKS
ABERDEEN       MOSUNNY   72  63  73 S14       29.94F
WATERTOWN      PTSUNNY   70  63  78 SE13      29.99F
BROOKINGS      MOSUNNY   72  61  68 SE12      30.02F
SISSETON         N/A     76  63  64 SE15      29.97F
$$

SDZ017-020-022-023-036>040-048>070-241700-
SOUTHEAST SOUTH DAKOTA

CITY           SKY/WX    TMP DP  RH WIND       PRES   REMARKS
SIOUX FALLS    PTSUNNY   73  63  70 SE13      30.01F
HURON          SUNNY     75  62  64 S16G25    29.94F
CHAMBERLAIN    SUNNY     84  64  50 SE21G29   29.88F
MITCHELL       SUNNY     77  62  59 SE16      29.97F
YANKTON        SUNNY     77  62  59 S15       30.01
$$

ABBREVIATIONS USED IN REMARKS
   TC - TEMPERATURE IN CELSIUS
  WCI - WIND CHILL INDEX
   HX - HEAT INDEX
  VSB - VISIBILITY




USA.gov is the U.S. government's official web portal to all federal, state and local government web resources and services.